Regional Weather Roundup
Issued by NWS

Home | Current Version | Previous Version | Text Only | Print | Product List | Glossary Off
Versions: 1 2 3 4 5 6 7 8 9 10 11 12 13 14 15 16 17 18 19 20 21 22 23 24 25 26 27 28 29 30 31 32 33 34 35 36 37 38 39 40 41 42 43 44 45 46 47 48 49 50

911
ASUS43 KFSD 070802
RWRSD

WEATHER ROUNDUP FOR SOUTH DAKOTA
NATIONAL WEATHER SERVICE SIOUX FALLS SD
200 AM CST SUN FEB 07 2016

NOTE: "FAIR" INDICATES FEW OR NO CLOUDS BELOW 12,000 FEET WITH NO
SIGNIFICANT WEATHER AND/OR OBSTRUCTIONS TO VISIBILITY.


SDZ001>005-009-010-012>017-070900-
NORTHWEST AND NORTH CENTRAL SOUTH DAKOTA

CITY           SKY/WX    TMP DP  RH WIND       PRES   REMARKS
BUFFALO          N/A     32  28  85 W28G38    29.92R WCI  18
FAITH            N/A     35  22  58 NW29G39   29.94R WCI  22
MOBRIDGE       CLEAR     38  24  57 NW20      29.82R
$$

SDZ012>016-024>037-041>051-057-063-072>074-070900-
SOUTHWEST AND SOUTH CENTRAL SOUTH DAKOTA

CITY           SKY/WX    TMP DP  RH WIND       PRES   REMARKS
RAPID CTY ARPT MOCLDY    36  18  48 NW25G37   30.03F
PIERRE         MOCLDY    36  25  64 W16       29.93R
CUSTER         CLOUDY    28  11  48 NW18G31   30.02R WCI  15
ELLSWORTH AFB  CLEAR     37  18  46 NW29G39   30.02R
PHILIP         CLEAR     37  24  59 NW18      30.00R
PINE RIDGE     CLOUDY    33  23  66 NW6       30.08R WCI  28
WINNER         FAIR      38  25  59 W15       29.97S
$$

SDZ004>011-016>023-039-040-070900-
NORTHEAST SOUTH DAKOTA

CITY           SKY/WX    TMP DP  RH WIND       PRES   REMARKS
ABERDEEN       CLEAR     40  25  55 W22G32    29.74S
WATERTOWN      PTCLDY    36  26  67 W22       29.72S
BROOKINGS      PTCLDY    36  28  73 W20G28    29.75S
SISSETON         N/A     39  29  67 NW25G35   29.64S
$$

SDZ017-020-022-023-036>040-048>070-070900-
SOUTHEAST SOUTH DAKOTA

CITY           SKY/WX    TMP DP  RH WIND       PRES   REMARKS
SIOUX FALLS    CLEAR     37  27  67 W18       29.81S
HURON          CLEAR     36  28  73 W20       29.84R
MITCHELL       CLEAR     37  29  72 W18       29.88R
YANKTON        CLEAR     39  27  60 W24G30    29.89R
$$

ABBREVIATIONS USED IN REMARKS
   TC - TEMPERATURE IN CELSIUS
  WCI - WIND CHILL INDEX
   HX - HEAT INDEX
  VSB - VISIBILITY





USA.gov is the U.S. government's official web portal to all federal, state and local government web resources and services.